Tracking 18980 objects as of 21-Feb-2018
HD Live streaming from Space Station
objects crossing your sky now

COSMOS 1041

Track COSMOS 1041 now!
10-day predictions
COSMOS 1041 is classified as:


NORAD ID: 11050
Int'l Code: 1978-091H
Perigee: 1,484.7 km
Apogee: 1,515.0 km
Inclination: 74.0 °
Period: 115.8 minutes
Semi major axis: 7870 km
RCS: 0.7044 m2 (medium)
Launch date: October 4, 1978
Source: Commonwealth of Independent States (former USSR) (CIS)
Launch site: PLESETSK MISSILE AND SPACE COMPLEX (PKMTR)
aabbcc
Your satellite tracking list
Your tracking list is empty




NASA's NSSDC Master Catalog

Two Line Element Set (TLE):
1 11050U 78091H   18051.96022833 -.00000011 +00000-0 +29985-4 0  9990
2 11050 074.0350 291.0635 0019301 124.4605 341.0460 12.43283104787457
Source of the keplerian elements: AFSPC